Location: Flotzheim
(48.8375°N, 10.8136°E)
Time: 17:33:31
(UTC+00:00)

Cosmos 2344 - Pass Details

Date: 23 January 2021
Orbit: 1243 x 2999 km, 63.3° (Epoch: 28 February)

Event Time Altitude Azimuth Distance (km) Brightness Sun altitude
Rises 18:11:30 0° 317° (NW) 4,501 7.0 -21.3°
Reaches altitude 10° 18:14:05 10° 318° (NW) 3,651 6.4 -21.7°
Maximum altitude 18:23:14 84° 48° (NE) 1,853 4.2 -23.2°
Enters shadow 18:35:30 12° 138° (SE) 4,815 6.2 -25.3°
